Location: Владивосток
(43.1151°N, 131.8856°E)
Time: 01:58:57
(UTC+10:00)

FO-29 - Pass Details

Date: 29 April 2024
Orbit: 801 x 1320 km, 98.6° (Epoch: 19 May)

Event Time Altitude Azimuth Distance (km) Brightness Sun altitude
Rises 03:58:03 0° 8° (N) 4,245 13.7 -20.7°
Reaches altitude 10° 04:00:49 10° 3° (N) 3,310 12.9 -20.4°
Maximum altitude 04:08:08 47° 293° (WNW) 1,688 10.5 -19.4°
Enters shadow 04:12:04 27° 237° (WSW) 2,280 10.8 -18.9°
